[[{"header":{"parameterUnit":"m.s-1","parameterCategory":1,"la1":30.2991,"la2":30.254,"lo1":-89.0895,"lo2":-89.0444,"dy":0.0017,"dx":0.0017,"nx":28,"ny":28,"refTime":"2024-05-25T03:00:00:Z","depth":0,"parameterNumber":2,"parameterNumberName":"U-component_of_WINDS"},"data":[0,0,0,0,0,0,0,0,0,0,0,0,0,0,0,0,0,0,0,0,0,0,0,0,0,0,0,0,0,0,0,0,0,0,0,0,0,0,0,0,0,0,0,0,0,0,0,0,0,0,0,0,0,0,0,0,0,0,0.2646,0.2646,0,0.2663,0.2663,0.2663,0.2635,0.2634,0.2633,0.2632,0.265,0.2652,0.2653,0,0,0,0,0,0,0,0,0,0,0,0,0,0.2591,0.2592,0.2646,0.2646,0.2646,0.2662,0.2663,0.2663,0.2635,0.2634,0.2633,0.2632,0.265,0.2651,0.2653,0,0,0,0,0,0,0,0,0,0,0,0,0,0.2612,0.2592,0.2646,0.2635,0.2634,0.2662,0.2663,0.2663,0.2635,0.2634,0.2633,0.2631,0.2649,0.2651,0.2653,0.2694,0,0,0.2659,0.266,0,0,0,0,0,0,0,0,0.2611,0.2614,0.2636,0.2635,0.2634,0.2645,0.265,0.2674,0.2636,0.2635,0.2632,0.2631,0.265,0.2652,0.2658,0.2695,0.2696,0.266,0.2661,0.2662,0.2662,0,0,0,0,0,0,0,0.2609,0.2613,0.2653,0.2636,0.2635,0.2629,0.263,0.2654,0.265,0.2635,0.2633,0.2635,0.2649,0.2656,0.2658,0.2696,0.266,0.2661,0.2663,0.2663,0.2767,0.2768,0,0,0,0,0,0,0.2609,0.2612,0.2652,0.2653,0.2619,0.2631,0.2632,0.2643,0.265,0.2649,0.2636,0.2634,0.2653,0.2656,0.2659,0.2706,0.2662,0.2664,0.2665,0.2765,0.2767,0.2769,0,0,0,0,0,0,0.2608,0.2613,0.2651,0.2632,0.2636,0.2633,0.2646,0.2644,0.2651,0.2651,0.265,0.2644,0.2652,0.2656,0.2685,0.2707,0.2665,0.2666,0.2763,0.2766,0.2768,0.2803,0,0,0,0,0,0,0.2607,0.2613,0.2628,0.2633,0.2637,0.2678,0.2647,0.2646,0.2655,0.2652,0.2658,0.2658,0.2651,0.2682,0.2687,0.2709,0.2668,0.2761,0.2764,0.2767,0.2799,0.2806,0.2811,0,0,0,0,0,0.2605,0.2638,0.2629,0.2634,0.2657,0.2679,0.2682,0.2674,0.2657,0.2672,0.2672,0.2658,0.2704,0.2686,0.2691,0.2713,0.276,0.2764,0.2767,0.2797,0.2804,0.2811,0,0,0,0,0,0,0.2637,0.2638,0.2629,0.2664,0.2672,0.2674,0.2694,0.2682,0.2695,0.2691,0.2681,0.2683,0.2714,0.2717,0.2697,0.2753,0.2729,0.2734,0.275,0.2757,0.2763,0.2761,0.267,0,0,0,0,0,0.2648,0.2666,0.2666,0.2697,0.2702,0.2697,0.2706,0.2699,0.2707,0.271,0.2712,0.272,0.2736,0.2747,0.2762,0.28,0.28,0.2818,0.2823,0.2828,0.2832,0.2852,0.2859,0.278,0.278,0.278,0,0,0.2671,0.2674,0.2686,0.2704,0.2709,0.2727,0.27,0.2721,0.2734,0.2713,0.2741,0.2742,0.2751,0.2784,0.2799,0.2787,0.2854,0.2832,0.2836,0.2838,0.2856,0.2863,0.287,0.2782,0.2782,0.2781,0,0,0.2723,0.2728,0.2753,0.2759,0.2766,0.2763,0.2769,0.2773,0.2773,0.2801,0.2785,0.2801,0.2829,0.2835,0.2842,0.2895,0.2883,0.2901,0.2931,0.295,0.2956,0.2962,0.298,0.2987,0.2905,0.2905,0.2905,0,0.2751,0.2778,0.2768,0.279,0.2798,0.2779,0.2805,0.2811,0.2823,0.2829,0.2816,0.285,0.2854,0.2888,0.2901,0.2908,0.2914,0.29,0.2956,0.2961,0.2966,0.2984,0.2991,0.2907,0.2907,0.2907,0.2906,0,0.2812,0.2831,0.2851,0.2863,0.2873,0.2897,0.2891,0.2902,0.2894,0.2892,0.292,0.2924,0.2939,0.2947,0.294,0.298,0.2972,0.2958,0.2934,0.2976,0.2992,0.2999,0.291,0.2909,0.2909,0.2908,0,0,0.2885,0.289,0.2897,0.2902,0.2909,0.2923,0.2946,0.296,0.297,0.2979,0.2997,0.3021,0.3007,0.3015,0.3008,0.3025,0.3066,0.3008,0.3008,0.3018,0.311,0.3121,0.3129,0.3058,0.3059,0.306,0.3109,0,0.2936,0.2974,0.2966,0.3004,0.3021,0.3003,0.3023,0.3029,0.3028,0.3042,0.3041,0.3057,0.3038,0.3042,0.3058,0.3058,0.3084,0.3054,0.3075,0.3075,0.3073,0.3137,0.3149,0.3195,0.3116,0.3117,0.3117,0,0.3,0.3011,0.3051,0.3053,0.306,0.3078,0.309,0.3104,0.311,0.3108,0.3116,0.3106,0.3128,0.3104,0.3135,0.3114,0.3122,0.3123,0.3125,0.3126,0.3099,0.314,0.321,0.3217,0.3127,0.3127,0.3126,0,0.3048,0.3073,0.3099,0.3104,0.3108,0.3121,0.3124,0.3128,0.3137,0.3148,0.3153,0.3166,0.3173,0.3184,0.3177,0.316,0.3208,0.3184,0.3207,0.3207,0.3218,0.3217,0.329,0.3224,0.3224,0.3224,0.3224,0,0.3105,0.313,0.3121,0.3137,0.3164,0.3154,0.3181,0.3182,0.3186,0.3202,0.3188,0.3203,0.3193,0.3208,0.3203,0.3229,0.3232,0.3231,0.3229,0.3232,0.3232,0.3237,0.3233,0.3225,0.3225,0.3225,0.3224,0,0.3163,0.3158,0.3186,0.3187,0.3188,0.3208,0.321,0.3225,0.3222,0.3242,0.3247,0.3243,0.3259,0.3253,0.3271,0.3268,0.33,0.3295,0.3298,0.3296,0.3319,0.3317,0.3397,0.3407,0.3335,0.3336,0.3337,0,0.32,0.3218,0.3222,0.3231,0.3235,0.325,0.3259,0.325,0.3259,0.3267,0.3282,0.3296,0.3308,0.3335,0.3334,0.3347,0.3341,0.3368,0.3343,0.3345,0.3341,0.3339,0.3341,0.3373,0.3374,0.3375,0.3375,0,0.3265,0.3261,0.3274,0.3286,0.3296,0.3305,0.3313,0.3322,0.3313,0.3324,0.3341,0.3349,0.3367,0.3382,0.3394,0.3396,0.3384,0.3383,0.3389,0.3392,0.3393,0.3392,0.3311,0.3381,0.3381,0.338,0.338,0.338,0.3313,0.3328,0.3333,0.3347,0.3352,0.3359,0.3373,0.3372,0.3385,0.3399,0.3393,0.3411,0.3417,0.3431,0.3435,0.345,0.3439,0.3448,0.345,0.3452,0.3455,0.3391,0.3452,0.3452,0.3452,0.3451,0.3451,0,0.3376,0.3378,0.3392,0.3403,0.3414,0.3402,0.3409,0.342,0.3436,0.3442,0.3453,0.3471,0.3486,0.3485,0.3499,0.351,0.3505,0.3514,0.3513,0.3513,0.3464,0.3457,0.3518,0.3518,0.3518,0.3518,0.3518,0.3518,0.3411,0.3436,0.3433,0.346,0.3461,0.3479,0.3484,0.3491,0.3495,0.3516,0.3528,0.3527,0.3531,0.3544,0.3556,0.3556,0.3561,0.3572,0.3569,0.3523,0.3517,0.351,0.3504,0.3573,0.3573,0.3617,0.3618,0.3618]},{"header":{"parameterUnit":"m.s-1","parameterCategory":1,"la1":30.2991,"la2":30.254,"lo1":-89.0895,"lo2":-89.0444,"dy":0.0017,"dx":0.0017,"nx":28,"ny":28,"refTime":"2024-05-25T03:00:00:Z","depth":0,"parameterNumber":3,"parameterNumberName":"V-component_of_WINDS"},"data":[0,0,0,0,0,0,0,0,0,0,0,0,0,0,0,0,0,0,0,0,0,0,0,0,0,0,0,0,0,0,0,0,0,0,0,0,0,0,0,0,0,0,0,0,0,0,0,0,0,0,0,0,0,0,0,0,0,0,1.9853,1.9854,0,1.9907,1.9908,1.9909,1.9908,1.9907,1.9906,1.9906,1.9957,1.9959,1.9961,0,0,0,0,0,0,0,0,0,0,0,0,0,1.9746,1.9748,1.9853,1.9854,1.9855,1.9907,1.9908,1.9909,1.9908,1.9907,1.9906,1.9905,1.9957,1.9959,1.9961,0,0,0,0,0,0,0,0,0,0,0,0,0,1.9795,1.9748,1.9853,1.9861,1.9862,1.9907,1.9908,1.9909,1.9908,1.9907,1.9906,1.9905,1.9956,1.9959,1.9962,2.0002,0,0,1.9971,1.9972,0,0,0,0,0,0,0,0,1.9792,1.9799,1.9859,1.986,1.9862,1.99,1.9889,1.994,1.9908,1.989,1.9906,1.9904,1.9939,1.9943,1.9955,2.0004,2.0006,1.9971,1.9973,1.9974,1.9975,0,0,0,0,0,0,0,1.9789,1.9797,1.9875,1.986,1.9862,1.986,1.9866,1.9899,1.992,1.9892,1.9892,1.9899,1.9939,1.9953,1.9957,2.0007,1.9971,1.9974,1.9976,1.9977,2.0091,2.0092,0,0,0,0,0,0,1.9784,1.9794,1.9873,1.9876,1.9824,1.9863,1.9869,1.9889,1.9919,1.9923,1.9899,1.9898,1.9948,1.9953,1.9958,2.0008,1.9974,1.9977,1.9979,2.009,2.0091,2.0093,0,0,0,0,0,0,1.9782,1.9792,1.9871,1.9835,1.9845,1.9866,1.9887,1.989,1.9904,1.9925,1.9929,1.9909,1.9947,1.9954,1.9991,2.0009,1.9979,1.9981,2.0089,2.009,2.0092,2.0106,0,0,0,0,0,0,1.9779,1.9791,1.9807,1.9836,1.9847,1.9904,1.9889,1.9892,1.9909,1.9908,1.9935,1.9939,1.9947,1.9987,1.9994,2.0013,1.9984,2.0087,2.0089,2.0092,2.0104,2.0108,2.0112,0,0,0,0,0,1.9775,1.9808,1.9808,1.9818,1.9868,1.9905,1.9911,1.9921,1.9911,1.9927,1.9941,1.9938,2.0006,1.9991,1.9999,2.0019,2.0086,2.0089,2.0091,2.0102,2.0107,2.0112,0,0,0,0,0,0,1.978,1.9812,1.9812,1.9856,1.9878,1.9905,1.9926,1.9926,1.9951,1.9948,1.9958,1.9964,2.0001,2.0014,1.9996,2.0059,2.0045,2.0049,2.005,2.0055,2.0059,2.0055,1.9986,0,0,0,0,0,1.9786,1.9815,1.9841,1.9876,1.9888,1.9905,1.9921,1.9927,1.9949,1.9958,1.9975,1.9996,2.0022,2.0039,2.0064,2.0106,2.0111,2.0123,2.0127,2.013,2.0134,2.0157,2.0162,2.0102,2.0102,2.0102,0,0,1.9799,1.982,1.9837,1.9878,1.9896,1.9924,1.9912,1.9943,1.9963,1.9962,1.9999,2.0012,2.0036,2.0075,2.0093,2.0087,2.0152,2.0134,2.0136,2.0138,2.016,2.0166,2.0171,2.0103,2.0103,2.0103,0,0,1.9837,1.9856,1.9888,1.9907,1.9934,1.9945,1.9953,1.998,1.9989,2.0026,2.0026,2.005,2.0094,2.0112,2.0126,2.0171,2.0169,2.0178,2.0198,2.022,2.0225,2.0229,2.0245,2.025,2.0182,2.0182,2.0182,0,1.985,1.9894,1.9904,1.9935,1.9952,1.9954,1.9986,2.0002,2.0036,2.0048,2.004,2.0096,2.0113,2.0156,2.0167,2.0179,2.0187,2.0176,2.0223,2.0228,2.0232,2.0247,2.0253,2.0183,2.0183,2.0183,2.0183,0,1.9907,1.9937,1.996,1.9994,2.0014,2.0044,2.0059,2.0077,2.0081,2.0092,2.0129,2.0149,2.0178,2.0189,2.0192,2.0233,2.0228,2.0222,2.0207,2.0239,2.0253,2.0259,2.0184,2.0184,2.0184,2.0184,0,0,1.995,1.999,1.9998,2.0014,2.0044,2.0067,2.0097,2.0127,2.0143,2.0166,2.0191,2.0229,2.0223,2.024,2.0245,2.0264,2.0298,2.0256,2.0256,2.0263,2.0344,2.0349,2.0355,2.0297,2.0298,2.0299,2.0342,0,1.9992,2.0048,2.0058,2.0107,2.0134,2.0136,2.0162,2.0183,2.0194,2.0218,2.023,2.0257,2.0248,2.0258,2.0277,2.029,2.0314,2.0287,2.032,2.0321,2.0314,2.0363,2.0368,2.0408,2.0347,2.0348,2.0349,0,2.0048,2.0074,2.0126,2.0152,2.0164,2.0188,2.0216,2.0239,2.0262,2.0269,2.0288,2.0291,2.0321,2.0305,2.0347,2.0328,2.0342,2.035,2.0352,2.0355,2.0337,2.0368,2.0421,2.0427,2.0358,2.0357,2.0357,0,2.0075,2.0122,2.0159,2.0172,2.0204,2.0221,2.0235,2.0257,2.0274,2.0298,2.0309,2.0336,2.035,2.037,2.038,2.0367,2.0421,2.0405,2.0427,2.0427,2.0438,2.0438,2.0494,2.0447,2.0446,2.0446,2.0446,0,2.0121,2.0152,2.0172,2.0195,2.023,2.024,2.0274,2.0287,2.0307,2.0331,2.0333,2.0356,2.0367,2.0391,2.0398,2.0432,2.0438,2.0444,2.0446,2.0444,2.0443,2.0454,2.0451,2.0448,2.0448,2.0447,2.0447,0,2.0157,2.0171,2.0212,2.0239,2.0246,2.0271,2.0293,2.0315,2.0326,2.0357,2.0365,2.0382,2.041,2.0421,2.0455,2.046,2.0499,2.0498,2.0492,2.0492,2.0513,2.0511,2.0578,2.0588,2.0534,2.0534,2.0535,0,2.0185,2.021,2.024,2.0257,2.0272,2.0299,2.0317,2.0328,2.0346,2.0374,2.0392,2.0421,2.0444,2.0489,2.0504,2.053,2.053,2.0551,2.0533,2.0531,2.053,2.0529,2.0531,2.0555,2.0555,2.0556,2.0556,0,2.0234,2.024,2.0267,2.0296,2.0317,2.034,2.0363,2.0376,2.039,2.0411,2.044,2.0459,2.0494,2.0522,2.0549,2.0561,2.0561,2.0562,2.0568,2.0567,2.0562,2.0565,2.0501,2.056,2.056,2.0559,2.0559,2.0559,2.0268,2.0289,2.0314,2.0343,2.0362,2.0382,2.0404,2.0418,2.0444,2.0474,2.0479,2.051,2.0532,2.0568,2.0582,2.0606,2.06,2.0609,2.0612,2.0614,2.0615,2.0558,2.0611,2.0611,2.061,2.061,2.061,0,2.0317,2.0333,2.036,2.0392,2.0414,2.0413,2.0438,2.0456,2.0485,2.0506,2.0529,2.0563,2.059,2.0607,2.0634,2.065,2.065,2.0656,2.0655,2.0658,2.0619,2.0611,2.0656,2.0656,2.0656,2.0655,2.0655,2.0655,2.0345,2.0382,2.0391,2.0437,2.0452,2.0484,2.0498,2.0517,2.0534,2.0572,2.0595,2.0606,2.0625,2.0654,2.0678,2.0682,2.0692,2.0699,2.0703,2.0666,2.0661,2.0657,2.0649,2.0701,2.0701,2.074,2.0741,2.0741]}]]